GW4563 Weather Reports


time (UTC)temp
C
wind
direction
speed
KPH
gust
KPH
rain 1hr
cm
rain 24hr
cm
rain mn
cm
humidity
%
barometer
mb
20260506135547 20 52 3.2 6.4 0.00 0.00 0.00 84 1018.8
20260506135043 20 119 4.8 6.4 0.00 0.00 0.00 86 1018.6
20260506134539 20 123 1.6 3.2 0.00 0.00 0.00 87 1018.3
20260506134035 20 95 3.2 4.8 0.00 0.00 0.00 87 1018.3
20260506133533 20 72 1.6 4.8 0.00 0.00 0.00 87 1018.6
20260506133030 20 92 3.2 4.8 0.00 0.00 0.00 88 1018.3
20260506132527 19 81 3.2 4.8 0.00 0.00 0.00 88 1018.2
20260506132024 19 113 3.2 4.8 0.00 0.00 0.00 89 1018.3
20260506131521 19 129 3.2 6.4 0.00 0.00 0.00 89 1018.4
20260506131017 19 102 0.0 3.2 0.00 0.00 0.00 89 1018.3
20260506130514 19 88 3.2 4.8 0.00 0.00 0.00 90 1018.0
20260506130012 18 83 1.6 4.8 0.00 0.00 0.00 89 1017.8
20260506125510 18 76 1.6 3.2 0.00 0.00 0.00 90 1017.9
20260506125008 18 124 3.2 4.8 0.00 0.00 0.00 90 1018.2
20260506124505 18 60 3.2 3.2 0.00 0.00 0.00 90 1018.4
20260506124003 18 115 3.2 4.8 0.00 0.00 0.00 90 1018.4
20260506123501 18 107 1.6 3.2 0.00 0.00 0.00 90 1018.3
20260506122958 18 121 0.0 3.2 0.00 0.00 0.00 90 1018.2
20260506122455 18 92 1.6 4.8 0.00 0.00 0.00 90 1018.3
20260506121953 18 115 3.2 3.2 0.00 0.00 0.00 90 1018.1
20260506121450 18 102 3.2 4.8 0.00 0.00 0.00 90 1017.9
20260506120946 18 79 3.2 3.2 0.00 0.00 0.00 90 1017.8
20260506120444 18 91 1.6 3.2 0.00 0.00 0.00 90 1018.2
20260506115941 17 71 4.8 4.8 0.00 0.00 0.00 90 1017.9
20260506115439 17 79 1.6 3.2 0.00 0.00 0.00 90 1018.1
20260506114937 17 80 3.2 3.2 0.00 0.00 0.00 89 1017.8
20260506114434 17 103 3.2 4.8 0.00 0.00 0.00 89 1017.7
20260506113933 17 102 1.6 4.8 0.00 0.00 0.00 89 1017.6
20260506113431 17 96 1.6 3.2 0.00 0.00 0.00 89 1017.5
20260506112927 17 127 3.2 3.2 0.00 0.00 0.00 89 1017.7
20260506112425 17 107 3.2 3.2 0.00 0.00 0.00 89 1017.6
20260506111921 17 112 1.6 3.2 0.00 0.00 0.00 89 1017.8
20260506111419 17 96 1.6 4.8 0.00 0.00 0.00 89 1017.7
20260506110911 17 153 0.0 4.8 0.00 0.00 0.00 89 1017.7
20260506110408 17 104 3.2 3.2 0.00 0.00 0.00 88 1017.3
20260506105905 17 121 3.2 3.2 0.00 0.00 0.00 88 1017.5
20260506105401 17 104 3.2 3.2 0.00 0.00 0.00 88 1017.7
20260506104859 17 102 1.6 3.2 0.00 0.00 0.00 88 1017.4
20260506104356 17 119 1.6 3.2 0.00 0.00 0.00 88 1017.4
20260506103854 17 115 3.2 4.8 0.00 0.00 0.00 88 1017.2
20260506103351 17 110 0.0 3.2 0.00 0.00 0.00 88 1017.2
20260506102848 17 119 1.6 3.2 0.00 0.00 0.00 87 1016.9
20260506102346 17 97 0.0 3.2 0.00 0.00 0.00 87 1016.8
20260506101843 17 103 1.6 3.2 0.00 0.00 0.00 87 1016.7
20260506101339 17 112 1.6 3.2 0.00 0.00 0.00 87 1016.6
20260506100837 17 117 1.6 3.2 0.00 0.00 0.00 86 1016.6
20260506100335 16 88 1.6 3.2 0.00 0.00 0.00 86 1016.7
20260506095833 16 78 1.6 3.2 0.00 0.00 0.00 87 1016.6
20260506095330 17 132 3.2 3.2 0.00 0.00 0.00 87 1016.5
20260506094827 16 125 1.6 4.8 0.00 0.00 0.00 86 1016.6
20260506094326 16 122 3.2 3.2 0.00 0.00 0.00 86 1016.6
20260506093824 16 125 1.6 3.2 0.00 0.00 0.00 85 1016.6
20260506093320 16 115 1.6 3.2 0.00 0.00 0.00 86 1016.5
20260506092818 16 120 0.0 3.2 0.00 0.00 0.00 86 1016.6
20260506092316 16 135 0.0 3.2 0.00 0.00 0.00 85 1016.5
20260506091812 16 137 0.0 3.2 0.00 0.00 0.00 85 1016.3
20260506091310 16 120 1.6 3.2 0.00 0.00 0.00 84 1016.4
20260506090808 16 99 1.6 3.2 0.00 0.00 0.00 83 1016.3
20260506090305 16 102 1.6 3.2 0.00 0.00 0.00 84 1016.4
20260506085801 16 104 0.0 3.2 0.00 0.00 0.00 84 1016.3
20260506085257 16 115 1.6 3.2 0.00 0.00 0.00 84 1016.3
20260506084754 16 110 3.2 3.2 0.00 0.00 0.00 83 1016.5
20260506084251 16 120 1.6 3.2 0.00 0.00 0.00 82 1016.4
20260506083748 16 119 3.2 3.2 0.00 0.00 0.00 82 1016.4
20260506083245 16 102 1.6 4.8 0.00 0.00 0.00 82 1016.4
20260506082743 16 110 3.2 3.2 0.00 0.00 0.00 82 1016.5
20260506082238 16 103 1.6 3.2 0.00 0.00 0.00 81 1016.2
20260506081736 16 124 3.2 3.2 0.00 0.00 0.00 82 1016.3
20260506081233 16 118 3.2 3.2 0.00 0.00 0.00 82 1016.4
20260506080731 16 111 3.2 3.2 0.00 0.00 0.00 81 1016.2
20260506080227 16 105 3.2 3.2 0.00 0.00 0.00 81 1016.6
20260506073211 16 125 1.6 3.2 0.00 0.00 0.00 79 1016.6
20260506072708 16 140 0.0 3.2 0.00 0.00 0.00 79 1016.5
20260506072206 16 122 1.6 3.2 0.00 0.00 0.00 79 1016.7
20260506071703 16 126 1.6 3.2 0.00 0.00 0.00 79 1016.9
20260506071201 16 129 3.2 3.2 0.00 0.00 0.00 79 1017.0
20260506070658 16 135 1.6 3.2 0.00 0.00 0.00 79 1017.1
20260506070155 15 105 0.0 3.2 0.00 0.00 0.00 78 1017.1
20260506062131 16 110 3.2 3.2 0.00 0.00 0.00 75 1017.4
20260506061627 16 139 0.0 3.2 0.00 0.00 0.00 74 1017.1
20260506061125 16 109 1.6 1.6 0.00 0.00 0.00 74 1017.3
20260506060624 16 127 1.6 3.2 0.00 0.00 0.00 74 1017.3
20260506060120 16 136 0.0 1.6 0.00 0.00 0.00 73 1017.2
20260506051052 16 129 0.0 1.6 0.00 0.00 0.00 71 1016.8
20260506050550 16 120 0.0 1.6 0.00 0.00 0.00 71 1016.9
20260506045040 17 120 1.6 3.2 0.00 0.00 0.00 69 1017.0
20260506044538 16 115 1.6 3.2 0.00 0.00 0.00 69 1017.2
20260506044035 16 125 0.0 3.2 0.00 0.00 0.00 69 1017.3
20260506043532 16 107 1.6 3.2 0.00 0.00 0.00 69 1017.4
20260506043031 16 110 0.0 3.2 0.00 0.00 0.00 69 1017.5
20260506042529 16 133 1.6 3.2 0.00 0.00 0.00 69 1017.2
20260506042027 16 129 3.2 3.2 0.00 0.00 0.00 69 1017.2
20260506041525 16 89 0.0 3.2 0.00 0.00 0.00 69 1017.0
20260506041022 17 126 0.0 3.2 0.00 0.00 0.00 69 1017.1
20260506040520 17 115 0.0 1.6 0.00 0.00 0.00 69 1016.9
20260506040015 17 121 0.0 3.2 0.00 0.00 0.00 68 1017.0
20260506035512 17 134 1.6 3.2 0.00 0.00 0.00 69 1016.9
20260506035009 17 136 3.2 4.8 0.00 0.00 0.00 68 1016.7
20260506034507 17 133 1.6 3.2 0.00 0.00 0.00 69 1017.3
20260506034004 17 127 1.6 3.2 0.00 0.00 0.00 68 1017.3
20260506033501 17 51 1.6 3.2 0.00 0.00 0.00 67 1017.4
20260506032957 17 116 0.0 3.2 0.00 0.00 0.00 67 1017.3
20260506032455 17 128 0.0 3.2 0.00 0.00 0.00 66 1017.3
20260506031951 17 141 1.6 1.6 0.00 0.00 0.00 65 1017.2
20260506031449 17 125 3.2 3.2 0.00 0.00 0.00 65 1017.2
20260506030946 17 134 3.2 3.2 0.00 0.00 0.00 65 1017.1
20260506030444 17 110 0.0 3.2 0.00 0.00 0.00 64 1017.3
20260506025941 17 131 0.0 1.6 0.00 0.00 0.00 64 1017.2
20260506025437 17 123 0.0 1.6 0.00 0.00 0.00 63 1017.3
20260506024934 17 117 0.0 3.2 0.00 0.00 0.00 63 1017.1
20260506024431 17 119 3.2 3.2 0.00 0.00 0.00 64 1017.1
20260506023927 17 141 0.0 1.6 0.00 0.00 0.00 63 1017.3
20260506023424 17 135 0.0 1.6 0.00 0.00 0.00 63 1017.1
20260506022921 17 121 1.6 3.2 0.00 0.00 0.00 63 1017.2
20260506022418 17 136 1.6 3.2 0.00 0.00 0.00 63 1017.1
20260506021916 17 125 0.0 3.2 0.00 0.00 0.00 63 1017.4
20260506021413 17 131 0.0 3.2 0.00 0.00 0.00 63 1017.2
20260506020910 18 180 3.2 3.2 0.00 0.00 0.00 62 1017.2
20260506020408 18 110 0.0 3.2 0.00 0.00 0.00 61 1017.1
20260506015905 18 89 0.0 3.2 0.00 0.00 0.00 60 1017.1
20260506015402 18 114 1.6 3.2 0.00 0.00 0.00 60 1017.0
20260506014859 18 110 1.6 3.2 0.00 0.00 0.00 60 1016.9
20260506014356 18 129 0.0 3.2 0.00 0.00 0.00 60 1017.1
20260506013852 18 131 0.0 1.6 0.00 0.00 0.00 59 1017.0
20260506013350 18 121 3.2 3.2 0.00 0.00 0.00 59 1016.8
20260506012846 18 135 1.6 3.2 0.00 0.00 0.00 58 1017.0
20260506012343 19 117 0.0 3.2 0.00 0.00 0.00 58 1016.9
20260506011840 19 128 0.0 3.2 0.00 0.00 0.00 57 1017.0
20260506011337 19 129 0.0 1.6 0.00 0.00 0.00 55 1016.8
20260506010835 20 125 1.6 1.6 0.00 0.00 0.00 54 1016.8
20260506010333 20 135 0.0 1.6 0.00 0.00 0.00 54 1016.8
20260506005829 20 139 0.0 3.2 0.00 0.00 0.00 53 1016.8
20260506005326 20 136 1.6 1.6 0.00 0.00 0.00 52 1016.8
20260506004822 20 143 0.0 3.2 0.00 0.00 0.00 53 1016.8
20260506004320 21 121 1.6 3.2 0.00 0.00 0.00 56 1016.9
20260506003815 21 126 1.6 1.6 0.00 0.00 0.00 53 1017.1
20260506003312 21 132 0.0 1.6 0.00 0.00 0.00 50 1017.1
20260506002808 21 135 0.0 1.6 0.00 0.00 0.00 50 1017.1
20260506002306 21 135 0.0 1.6 0.00 0.00 0.00 52 1017.1
20260506001801 21 129 1.6 1.6 0.00 0.00 0.00 50 1016.9
20260506001258 22 140 0.0 1.6 0.00 0.00 0.00 49 1017.0
20260506000755 22 147 0.0 1.6 0.00 0.00 0.00 50 1016.9
20260506000254 22 217 0.0 1.6 0.00 0.00 0.00 49 1017.1
20260505235749 22 217 0.0 1.6 0.00 0.00 0.00 50 1016.8
20260505235247 22 94 1.6 3.2 0.00 0.00 0.00 49 1016.8
20260505234744 22 142 0.0 3.2 0.00 0.00 0.00 54 1016.8
20260505234241 22 119 0.0 3.2 0.00 0.00 0.00 51 1016.8
20260505233737 23 81 0.0 3.2 0.00 0.00 0.00 51 1016.8
20260505233236 23 137 0.0 4.8 0.00 0.00 0.00 48 1016.9
20260505232733 23 24 4.8 4.8 0.00 0.00 0.00 50 1016.9
20260505232230 23 66 0.0 3.2 0.00 0.00 0.00 48 1016.8
20260505231726 23 103 1.6 3.2 0.00 0.00 0.00 49 1016.9
20260505231226 23 144 3.2 3.2 0.00 0.00 0.00 47 1016.7
20260505230723 23 80 0.0 3.2 0.00 0.00 0.00 47 1016.7
20260505230220 23 157 0.0 3.2 0.00 0.00 0.00 48 1016.8
20260505225716 23 114 1.6 3.2 0.00 0.00 0.00 48 1016.4
20260505225213 24 299 0.0 6.4 0.00 0.00 0.00 44 1016.6
20260505224709 24 96 3.2 3.2 0.00 0.00 0.00 48 1016.6
20260505224207 24 71 1.6 3.2 0.00 0.00 0.00 45 1016.5
20260505223704 24 120 3.2 4.8 0.00 0.00 0.00 48 1016.4
20260505223200 24 84 4.8 4.8 0.00 0.00 0.00 48 1016.7
20260505222656 25 153 3.2 3.2 0.00 0.00 0.00 48 1016.6
20260505222152 25 133 3.2 3.2 0.00 0.00 0.00 44 1016.7
20260505221650 25 347 3.2 3.2 0.00 0.00 0.00 42 1016.3
20260505221146 26 137 3.2 3.2 0.00 0.00 0.00 42 1016.4
20260505220643 26 117 3.2 3.2 0.00 0.00 0.00 41 1016.5
20260505220141 26 112 3.2 6.4 0.00 0.00 0.00 39 1016.4
20260505215638 26 61 4.8 4.8 0.00 0.00 0.00 40 1016.2
20260505215136 26 171 3.2 6.4 0.00 0.00 0.00 41 1016.3
20260505214634 26 116 3.2 6.4 0.00 0.00 0.00 45 1016.4
20260505214131 26 167 0.0 3.2 0.00 0.00 0.00 45 1016.5
20260505213629 27 95 3.2 6.4 0.00 0.00 0.00 39 1016.4
20260505213125 27 166 3.2 4.8 0.00 0.00 0.00 36 1016.8
20260505212621 26 238 1.6 6.4 0.00 0.00 0.00 42 1016.4
20260505212119 27 122 3.2 4.8 0.00 0.00 0.00 47 1016.6
20260505211615 27 144 4.8 6.4 0.00 0.00 0.00 42 1016.5
20260505211113 27 172 0.0 4.8 0.00 0.00 0.00 40 1016.5
20260505210609 26 147 1.6 6.4 0.00 0.00 0.00 41 1016.6
20260505210106 27 120 3.2 4.8 0.00 0.00 0.00 38 1016.6
20260505205604 28 160 3.2 3.2 0.00 0.00 0.00 39 1016.5
20260505205102 28 141 0.0 3.2 0.00 0.00 0.00 40 1016.9
20260505204558 27 162 3.2 4.8 0.00 0.00 0.00 40 1017.0
20260505204056 27 319 3.2 4.8 0.00 0.00 0.00 39 1016.9
20260505203552 27 44 4.8 4.8 0.00 0.00 0.00 41 1017.0
20260505203050 27 107 3.2 3.2 0.00 0.00 0.00 39 1017.0
20260505202545 27 54 1.6 4.8 0.00 0.00 0.00 38 1017.0
20260505202041 27 115 4.8 4.8 0.00 0.00 0.00 40 1017.2
20260505201538 28 97 4.8 6.4 0.00 0.00 0.00 38 1017.1
20260505201036 27 128 0.0 6.4 0.00 0.00 0.00 39 1017.3
20260505200534 28 166 1.6 3.2 0.00 0.00 0.00 38 1017.4
20260505200030 28 157 3.2 4.8 0.00 0.00 0.00 37 1017.4
20260505195526 27 235 1.6 6.4 0.00 0.00 0.00 40 1017.5
20260505195024 27 78 3.2 4.8 0.00 0.00 0.00 38 1017.4
20260505194521 26 189 0.0 3.2 0.00 0.00 0.00 40 1017.5
20260505194016 26 202 0.0 3.2 0.00 0.00 0.00 42 1017.7
20260505193514 27 348 8.0 8.0 0.00 0.00 0.00 39 1017.8
20260505193011 27 25 4.8 6.4 0.00 0.00 0.00 38 1017.9
20260505192509 27 185 3.2 3.2 0.00 0.00 0.00 40 1017.8
20260505192007 26 121 3.2 6.4 0.00 0.00 0.00 40 1017.6
20260505191505 26 193 3.2 6.4 0.00 0.00 0.00 41 1017.9
20260505191003 26 128 3.2 4.8 0.00 0.00 0.00 43 1017.7
20260505190457 26 274 3.2 3.2 0.00 0.00 0.00 42 1017.8
20260505185952 26 54 4.8 6.4 0.00 0.00 0.00 41 1018.0
20260505185450 26 115 4.8 8.0 0.00 0.00 0.00 44 1018.1
20260505184946 26 166 3.2 4.8 0.00 0.00 0.00 42 1018.0
20260505184443 26 122 3.2 4.8 0.00 0.00 0.00 42 1018.3
20260505183939 25 170 1.6 6.4 0.00 0.00 0.00 50 1018.2
20260505183437 25 109 3.2 6.4 0.00 0.00 0.00 45 1018.4
20260505182933 25 108 3.2 4.8 0.00 0.00 0.00 46 1018.6
20260505182431 25 114 4.8 6.4 0.00 0.00 0.00 43 1018.4
20260505181926 25 105 3.2 6.4 0.00 0.00 0.00 44 1018.6
20260505181424 25 128 3.2 4.8 0.00 0.00 0.00 44 1018.6
20260505180921 25 109 6.4 6.4 0.00 0.00 0.00 45 1018.9
20260505180417 25 97 4.8 6.4 0.00 0.00 0.00 48 1018.8
20260505175914 25 108 3.2 4.8 0.00 0.00 0.00 46 1018.9
20260505175410 26 181 3.2 4.8 0.00 0.00 0.00 46 1019.2
20260505174907 25 70 3.2 4.8 0.00 0.00 0.00 45 1019.1
20260505174404 25 179 1.6 6.4 0.00 0.00 0.00 45 1019.3
20260505173900 25 110 3.2 6.4 0.00 0.00 0.00 46 1019.2
20260505173357 24 160 3.2 6.4 0.00 0.00 0.00 47 1019.3
20260505172854 24 102 4.8 6.4 0.00 0.00 0.00 45 1019.6
20260505172352 24 141 3.2 4.8 0.00 0.00 0.00 46 1019.2
20260505171851 24 180 4.8 4.8 0.00 0.00 0.00 45 1019.4
20260505171348 23 113 3.2 6.4 0.00 0.00 0.00 47 1019.4
20260505170844 24 99 4.8 4.8 0.00 0.00 0.00 47 1019.3
20260505170342 23 135 6.4 6.4 0.00 0.00 0.00 48 1019.2
20260505165837 23 99 4.8 6.4 0.00 0.00 0.00 53 1019.5
20260505165333 23 105 4.8 8.0 0.00 0.00 0.00 50 1019.6
20260505164829 23 131 4.8 4.8 0.00 0.00 0.00 50 1019.4
20260505164325 23 153 4.8 4.8 0.00 0.00 0.00 49 1019.5
20260505163824 23 84 3.2 6.4 0.00 0.00 0.00 47 1019.5
20260505163322 23 155 4.8 6.4 0.00 0.00 0.00 52 1019.5
20260505162820 22 134 4.8 9.7 0.00 0.00 0.00 53 1019.4
20260505162316 22 172 3.2 3.2 0.00 0.00 0.00 53 1019.8
20260505161813 22 148 3.2 4.8 0.00 0.00 0.00 53 1019.5
20260505161311 22 135 1.6 4.8 0.00 0.00 0.00 51 1019.6
20260505160808 22 17 3.2 4.8 0.00 0.00 0.00 52 1019.7
20260505160306 21 114 3.2 6.4 0.00 0.00 0.00 53 1019.7
20260505153244 21 114 3.2 3.2 0.00 0.00 0.00 61 1020.0
20260505152741 21 147 3.2 6.4 0.00 0.00 0.00 61 1020.2
20260505152237 21 134 3.2 4.8 0.00 0.00 0.00 61 1020.0
20260505151732 20 130 3.2 4.8 0.00 0.00 0.00 65 1020.0
20260505151230 20 77 3.2 4.8 0.00 0.00 0.00 67 1019.8
20260505150726 20 103 3.2 6.4 0.00 0.00 0.00 62 1019.8
20260505150223 20 126 1.6 4.8 0.00 0.00 0.00 66 1019.8
20260505140651 18 78 3.2 3.2 0.00 0.00 0.00 66 1019.4
20260505140148 18 72 1.6 3.2 0.00 0.00 0.00 69 1019.4